Location: Tamazert
(32.6352°N, 5.2072°W)
Time: 15:03:26
(UTC+00:00)

Vanguard 3 - Pass Details

Date: 09 October 2022
Orbit: 509 x 3255 km, 33.3° (Epoch: 08 December)

Event Time Altitude Azimuth Distance (km) Brightness Sun altitude
Rises 10:40:46 0° 280° (W) 2,835 9.7 45.8°
Reaches altitude 10° 10:42:41 10° 277° (W) 2,076 9.1 46.0°
Maximum altitude 10:47:19 68° 195° (SSW) 941 8.7 46.5°
Drops below altitude 10° 10:55:06 10° 114° (ESE) 3,414 11.0 47.3°
Sets 10:59:04 0° 112° (ESE) 4,857 11.6 47.7°
